CZ-6A DEB, 56585

Orbit data source: Space-Track

CZ-6A DEB, 56585 is space debris in SSO originally from a launch on Fri, 11 Nov 2022 UTC launched from the Taiyaun Space Center, China (TSC). Debris objects in space refer to the collection of defunct objects orbiting the Earth. Examples of debris include non-operational satellites, rocket bodies, and fragments generated from explosions, collisions, or faulty payload assembly.

Loading next visibility...
Identifier
56585, 2022-151ADH
Orbit
SSO
Country
Flag of CNCN / PRC
Related business
Manufacturer
SAST
Mission
Spacecraft
Bus & Motor
Unknown
Mass
Unknown
Launch date (UTC)
2022-11-11 (3 years ago)
Launch vehicle
Unknown
Launch site
Taiyaun Space Center, China (TSC)
Object type
Payload
Rocket body
Debris
Shape & HBR
Unknown shape, 0.1 m
Radar Cross Section
Small (<0.1 m²)

Expand to show TLE details & history
Last TLE update: 3 days ago

TLE from 3 days ago
0 CZ-6A DEB
1 56585U 22151ADH 25347.93272529  .00303634  00000-0  10047-1 0  9992
2 56585  98.6081  59.0428 0017748  49.9407 310.3384 15.29892108152769
Epoch: 2025-12-13T22:23Z
TLE epoch observation values (Epoch: 2025-12-13T22:23:07.465Z)
Latitude
0.00009°
Longitude
0.40878°
Altitude
471.337 km
Speed
7.635 km/s
True Right ascension
03h 56m 10s
True Declination
0° 00' 00"
Sunlit
Object was in full shadow at epoch
Visualization orbit readout
Latitude
Unknown
Longitude
Unknown
Altitude
Unknown
Speed
Unknown
Apparent Right ascension
Unknown
Apparent Declination
Unknown
Sunlit
N/A
Visualization observer readout
Local Sidereal Time
23:48:30
Azimuth
Unknown
Elevation
Unknown
Doppler factor
Unknown
Orbital elements
Apogee altitude
485.303 km
Perigee altitude
460.983 km
Semi-major axis
6,851.28 km
Eccentricity
0.00177
Inclination
98.6081°
RAAN
59.0428°
Arg. of periapsis
49.9407°
True anomaly
310.18316°
Mean anomaly
310.3384°
Eccentric anomaly
310.2608°
Mean motion
3.82724 °/min
Orbital period
94.06 mins
BSTAR
0.010047
Loading maneuver chart data...
Computing Atmospheric mass density...
Loading historical data...
Loading historical data...
Loading historical data...
Loading historical data...
Loading historical data...
Loading historical data...
Loading historical data...

Documentation

Showing up to 5 results
|